period_start,C,m1,H,J0,J1,J2,J3,J4,J5,JA,JB,JC,JD,JJ,JK,JN,#
2017-03-18 00:04:31,0.19,4.10,0.00,23.83,26.57,30.12,14.43,49.81,1015.46,2029.06,2206.51,2139.40,2451.22,600.10,593.78,20.42,0000 0000 0000 0000 000000
2017-03-18 00:09:33,0.16,4.11,0.00,23.84,26.57,30.10,14.55,49.81,1015.55,2029.05,2204.59,2137.85,2449.55,600.42,594.18,20.47,0000 0000 0000 0000 000000
2017-03-18 00:14:34,0.16,4.12,0.00,23.84,26.57,30.08,14.48,49.76,1015.63,2029.02,2202.71,2136.56,2447.94,600.05,593.90,20.52,0000 0000 0000 0000 000000
2017-03-18 00:19:35,0.14,4.12,0.00,23.82,26.57,30.09,14.41,49.68,1015.64,2029.03,2200.89,2135.29,2446.43,599.80,593.69,20.57,0000 0000 0000 0000 000000
2017-03-18 00:24:36,0.13,4.13,0.00,23.81,26.57,30.07,14.53,49.53,1015.63,2029.03,2199.21,2134.01,2444.98,600.24,593.85,20.62,0000 0000 0000 0000 000000
2017-03-18 00:29:37,0.17,4.14,0.00,23.81,26.57,30.08,14.45,49.65,1015.35,2029.03,2197.40,2132.69,2443.46,599.67,593.35,20.67,0000 0000 0000 0000 000000
2017-03-18 00:34:38,0.20,4.15,0.00,23.74,26.57,30.05,14.43,49.77,1015.16,2029.05,2195.21,2130.98,2441.49,600.22,593.83,20.72,0000 0000 0000 0000 000000
2017-03-18 00:39:39,0.16,4.16,0.00,23.71,26.57,30.06,14.45,49.91,1015.15,2029.02,2193.20,2129.44,2439.67,599.80,593.54,20.77,0000 0000 0000 0000 000000
2017-03-18 00:44:41,0.20,4.17,0.00,23.71,26.55,30.09,14.43,50.12,1015.00,2029.03,2190.99,2127.79,2437.78,600.10,593.75,20.82,0000 0000 0000 0000 000000
2017-03-18 00:49:42,0.20,4.18,0.00,23.68,26.55,30.00,14.46,50.08,1014.98,2029.03,2188.95,2125.93,2435.77,600.03,593.75,20.87,0000 0000 0000 0000 000000
2017-03-18 00:54:44,0.17,4.19,0.00,23.75,26.55,30.00,14.44,50.01,1014.84,2029.02,2186.99,2124.50,2433.85,599.54,593.05,20.92,0000 0000 0000 0000 000000
2017-03-18 00:59:45,0.14,4.20,0.00,23.75,26.55,30.04,14.50,50.15,1014.87,2029.03,2185.21,2123.06,2432.40,600.12,593.58,20.97,0000 0000 0000 0000 000000
2017-03-18 01:04:46,0.18,4.20,0.00,23.73,26.56,30.03,14.45,50.11,1014.90,2029.03,2183.25,2121.66,2430.79,600.10,593.62,21.02,0000 0000 0000 0000 000000
2017-03-18 01:09:47,0.14,4.21,0.00,23.72,26.57,30.05,14.51,50.17,1014.87,2029.02,2181.40,2120.41,2429.33,599.81,593.34,21.07,0000 0000 0000 0000 000000
2017-03-18 01:14:49,0.20,4.22,0.00,23.69,26.57,30.06,14.50,50.13,1014.67,2029.03,2179.30,2118.75,2427.44,600.00,593.52,21.12,0000 0000 0000 0000 000000
2017-03-18 01:19:50,0.18,4.23,0.00,23.55,26.57,30.09,14.49,50.34,1014.66,2029.03,2177.12,2117.08,2425.52,599.90,593.70,21.17,0000 0000 0000 0000 000000
2017-03-18 01:24:51,0.17,4.24,0.00,23.46,26.57,30.21,14.49,50.36,1014.56,2029.03,2175.19,2115.66,2423.87,600.05,594.15,21.22,0000 0000 0000 0000 000000
2017-03-18 01:29:53,0.15,4.25,0.00,23.42,26.57,30.28,14.56,50.35,1014.42,2029.02,2173.38,2114.29,2422.23,600.23,594.13,21.27,0000 0000 0000 0000 000000
2017-03-18 01:34:54,0.16,4.26,0.00,23.40,26.56,30.27,14.54,50.27,1014.47,2029.03,2171.53,2113.02,2420.74,600.15,594.11,21.32,0000 0000 0000 0000 000000
2017-03-18 01:39:55,0.17,4.26,0.00,23.41,26.55,30.28,14.44,50.49,1014.36,2029.02,2169.57,2111.64,2419.28,599.66,593.52,21.37,0000 0000 0000 0000 000000
2017-03-18 01:44:56,0.15,4.27,0.00,23.52,26.55,30.15,14.47,50.13,1014.62,2029.02,2167.70,2110.54,2417.69,600.01,593.85,21.42,0000 0000 0000 0000 000000
2017-03-18 01:49:57,0.15,4.28,0.00,23.50,26.55,30.12,14.45,50.29,1014.65,2029.02,2165.77,2109.24,2416.16,600.07,593.95,21.47,0000 0000 0000 0000 000000
2017-03-18 01:54:58,0.17,4.29,0.00,23.50,26.55,30.16,14.39,50.27,1014.66,2029.02,2163.91,2107.83,2414.60,599.89,593.77,21.52,0000 0000 0000 0000 000000
2017-03-18 02:00:00,0.18,4.30,0.00,23.47,26.55,30.22,14.51,50.18,1014.66,2029.03,2161.85,2106.42,2413.04,599.80,593.73,21.57,0000 0000 0000 0000 000000
2017-03-18 02:05:01,0.16,4.31,0.00,23.54,26.55,30.21,14.54,50.06,1014.69,2029.02,2159.87,2104.95,2411.46,600.05,593.89,21.62,0000 0000 0000 0000 000000
2017-03-18 02:10:03,0.18,4.31,0.00,23.54,26.55,30.15,14.47,50.13,1014.73,2029.03,2157.85,2103.59,2409.78,599.91,593.76,21.67,0000 0000 0000 0000 000000
2017-03-18 02:15:04,0.16,4.32,0.00,23.59,26.57,30.13,14.54,49.99,1014.92,2029.01,2155.92,2102.15,2408.14,600.14,594.00,21.72,0000 0000 0000 0000 000000
2017-03-18 02:20:05,0.15,4.33,0.00,23.60,26.57,30.13,14.42,50.18,1014.71,2029.03,2154.24,2100.75,2406.58,599.84,593.54,21.77,0000 0000 0000 0000 000000
2017-03-18 02:25:06,0.15,4.34,0.00,23.46,26.57,30.16,14.53,50.17,1014.73,2029.04,2152.48,2099.62,2405.23,600.11,594.08,21.82,0000 0000 0000 0000 000000
2017-03-18 02:30:07,0.15,4.35,0.00,23.36,26.57,30.30,14.56,50.28,1014.72,2029.02,2150.71,2098.44,2403.85,599.80,593.97,21.87,0000 0000 0000 0000 000000
2017-03-18 02:35:09,0.12,4.35,0.00,23.30,26.57,30.37,14.52,49.98,1014.84,2029.05,2149.24,2097.42,2402.70,599.85,594.24,21.92,0000 0000 0000 0000 000000
2017-03-18 02:40:10,0.14,4.36,0.00,23.27,26.55,30.33,14.54,50.03,1015.12,2029.05,2147.65,2096.38,2401.48,600.12,594.75,21.97,0000 0000 0000 0000 000000
2017-03-18 02:45:11,0.13,4.37,0.00,23.26,26.55,30.32,14.43,49.68,1015.07,2029.05,2145.88,2095.31,2400.23,599.67,594.32,22.02,0000 0000 0000 0000 000000
2017-03-18 02:50:12,0.14,4.38,0.00,23.24,26.53,30.23,14.49,49.77,1015.08,2029.12,2144.22,2094.22,2398.89,599.86,594.56,22.07,0000 0000 0000 0000 000000
2017-03-18 02:55:14,0.15,4.38,0.00,23.25,26.52,30.23,14.58,49.73,1015.09,2029.23,2142.50,2093.07,2397.56,600.46,595.09,22.12,0000 0000 0000 0000 000000
2017-03-18 03:00:15,0.12,4.39,0.00,23.40,26.52,30.15,14.40,49.94,1015.06,2029.18,2140.91,2091.98,2396.34,599.69,594.32,22.17,0000 0000 0000 0000 000000
2017-03-18 03:05:16,0.12,4.40,0.00,23.42,26.52,30.13,14.48,49.94,1014.85,2029.15,2139.55,2090.86,2395.02,600.07,594.27,22.22,0000 0000 0000 0000 000000
2017-03-18 03:10:18,0.14,4.40,0.00,23.52,26.53,30.12,14.47,50.04,1014.75,2029.16,2137.95,2089.83,2393.77,600.05,593.95,22.27,0000 0000 0000 0000 000000
2017-03-18 03:15:19,0.12,4.41,0.00,23.46,26.55,30.14,14.48,49.98,1014.71,2029.25,2136.41,2088.84,2392.65,599.95,593.95,22.32,0000 0000 0000 0000 000000
2017-03-18 03:20:21,0.13,4.42,0.00,23.33,26.55,30.22,14.54,50.06,1014.66,2029.14,2134.90,2087.80,2391.50,599.92,594.05,22.37,0000 0000 0000 0000 000000
2017-03-18 03:25:22,0.12,4.42,0.00,23.28,26.55,30.29,14.49,50.02,1014.34,2029.09,2133.28,2086.77,2390.24,599.84,594.02,22.42,0000 0000 0000 0000 000000
2017-03-18 03:30:23,0.15,4.43,0.00,23.29,26.55,30.34,14.49,50.24,1014.19,2029.09,2131.64,2085.64,2388.92,600.16,594.18,22.47,0000 0000 0000 0000 000000
2017-03-18 03:35:24,0.10,4.44,0.00,23.35,26.55,30.31,14.51,50.26,1014.17,2029.07,2130.28,2084.67,2387.78,600.02,593.90,22.52,0000 0000 0000 0000 000000
2017-03-18 03:40:25,0.12,4.44,0.00,23.41,26.55,30.19,14.45,50.24,1013.98,2029.09,2128.94,2083.73,2386.68,599.92,593.77,22.57,0000 0000 0000 0000 000000
2017-03-18 03:45:26,0.11,4.45,0.00,23.48,26.57,30.13,14.41,50.39,1013.76,2029.05,2127.53,2082.80,2385.60,599.90,593.34,22.62,0000 0000 0000 0000 000000
2017-03-18 03:50:28,0.11,4.45,0.00,23.52,26.57,30.14,14.47,50.12,1013.87,2029.06,2126.12,2081.86,2384.44,600.14,593.59,22.67,0000 0000 0000 0000 000000
2017-03-18 03:55:29,0.14,4.46,0.00,23.49,26.57,30.15,14.42,50.04,1014.08,2029.03,2124.55,2080.73,2383.23,599.66,593.23,22.72,0000 0000 0000 0000 000000
2017-03-18 04:00:30,0.10,4.47,0.00,23.38,26.59,30.22,14.57,50.05,1014.16,2029.03,2123.11,2079.78,2382.13,600.28,594.11,22.77,0000 0000 0000 0000 000000
2017-03-18 04:05:31,0.13,4.47,0.00,23.34,26.59,30.35,14.43,49.86,1014.17,2029.02,2121.62,2078.76,2380.98,599.56,593.50,22.82,0000 0000 0000 0000 000000
2017-03-18 04:10:32,0.17,4.48,0.00,23.34,26.59,30.41,14.50,49.84,1014.17,2029.02,2119.83,2077.59,2379.62,600.10,594.02,22.87,0000 0000 0000 0000 000000
2017-03-18 04:15:34,0.13,4.49,0.00,23.35,26.58,30.36,14.44,49.74,1014.19,2029.03,2118.15,2076.56,2378.35,599.66,593.56,22.92,0000 0000 0000 0000 000000
2017-03-18 04:20:35,0.13,4.49,0.00,23.45,26.58,30.34,14.37,49.75,1014.22,2029.02,2116.67,2075.52,2377.07,599.74,593.70,22.97,0000 0000 0000 0000 000000
2017-03-18 04:25:37,0.12,4.50,0.00,23.50,26.60,30.17,14.52,49.89,1014.29,2029.05,2115.34,2074.50,2375.93,600.43,594.04,23.02,0000 0000 0000 0000 000000
2017-03-18 04:30:38,0.13,4.51,0.00,23.58,26.60,30.13,14.39,49.85,1014.58,2029.02,2113.84,2073.49,2374.71,599.67,593.44,23.07,0000 0000 0000 0000 000000
2017-03-18 04:35:39,0.11,4.51,0.00,23.62,26.62,30.18,14.44,49.65,1014.66,2029.00,2112.45,2072.52,2373.61,599.78,593.42,23.12,0000 0000 0000 0000 000000
2017-03-18 04:40:40,0.11,4.52,0.00,23.61,26.62,30.21,14.45,49.66,1014.66,2029.00,2111.03,2071.62,2372.49,599.96,593.56,23.17,0000 0000 0000 0000 000000
2017-03-18 04:45:42,0.13,4.52,0.00,23.62,26.64,30.18,14.45,49.58,1014.67,2029.00,2109.69,2070.57,2371.35,599.80,593.41,23.22,0000 0000 0000 0000 000000
2017-03-18 04:50:43,0.10,4.53,0.00,23.68,26.65,30.15,14.50,49.43,1014.80,2029.00,2108.52,2069.71,2370.22,600.56,594.17,23.27,0000 0000 0000 0000 000000
2017-03-18 04:55:44,0.11,4.54,0.00,23.68,26.66,30.18,14.43,49.51,1015.09,2029.00,2107.12,2068.74,2369.21,599.95,593.67,23.32,0000 0000 0000 0000 000000
2017-03-18 05:00:45,0.12,4.54,0.00,23.75,26.67,30.19,14.52,49.62,1015.15,2029.00,2105.67,2067.79,2368.06,600.25,594.00,23.37,0000 0000 0000 0000 000000
2017-03-18 05:05:47,0.11,4.55,0.00,23.73,26.69,30.18,14.38,49.46,1015.16,2029.00,2104.32,2066.84,2367.03,599.94,593.66,23.42,0000 0000 0000 0000 000000
2017-03-18 05:10:48,0.11,4.56,0.00,23.76,26.70,30.20,14.43,49.50,1015.15,2028.98,2102.91,2065.87,2366.00,599.75,593.41,23.47,0000 0000 0000 0000 000000
2017-03-18 05:15:49,0.11,4.56,0.00,23.79,26.71,30.21,14.41,49.48,1015.18,2028.98,2101.66,2064.99,2364.97,599.63,593.24,23.52,0000 0000 0000 0000 000000
2017-03-18 05:20:50,0.11,4.57,0.00,23.85,26.72,30.19,14.40,49.63,1015.17,2028.98,2100.27,2064.08,2363.96,599.90,593.33,23.57,0000 0000 0000 0000 000000
2017-03-18 05:25:51,0.13,4.57,0.00,23.83,26.72,30.19,14.44,49.75,1015.17,2028.98,2098.82,2063.16,2362.90,600.40,593.82,23.62,0000 0000 0000 0000 000000
2017-03-18 05:30:53,0.12,4.58,0.00,23.86,26.73,30.21,14.42,49.78,1015.15,2028.96,2097.44,2062.19,2361.80,599.65,593.10,23.68,0000 0000 0000 0000 000000
2017-03-18 05:35:54,0.11,4.59,0.00,23.86,26.74,30.21,14.55,49.77,1015.15,2028.97,2096.15,2061.30,2360.74,600.52,593.86,23.73,0000 0000 0000 0000 000000
2017-03-18 05:40:55,0.13,4.59,0.00,23.89,26.74,30.20,14.42,49.72,1015.15,2028.98,2094.69,2060.46,2359.68,600.19,593.42,23.78,0000 0000 0000 0000 000000
2017-03-18 05:45:56,0.10,4.60,0.00,23.89,26.74,30.18,14.42,49.70,1015.09,2028.98,2093.40,2059.58,2358.67,600.15,593.60,23.83,0000 0000 0000 0000 000000
2017-03-18 05:50:58,0.11,4.60,0.00,23.88,26.74,30.17,14.44,49.82,1015.03,2028.96,2092.05,2058.62,2357.58,600.04,593.36,23.88,0000 0000 0000 0000 000000
2017-03-18 05:55:59,0.11,4.61,0.00,23.89,26.74,30.17,14.42,49.76,1014.95,2028.95,2090.68,2057.77,2356.57,600.26,593.41,23.93,0000 0000 0000 0000 000000
2017-03-18 06:01:00,0.10,4.62,0.00,23.88,26.73,30.15,14.37,49.76,1014.71,2028.95,2089.38,2056.94,2355.58,599.52,592.62,23.98,0000 0000 0000 0000 000000
2017-03-18 06:06:01,0.11,4.62,0.00,23.91,26.72,30.16,14.39,49.77,1014.67,2028.98,2088.03,2056.07,2354.63,600.01,593.07,24.03,0000 0000 0000 0000 000000
2017-03-18 06:11:02,0.13,4.63,0.00,23.90,26.72,30.12,14.42,49.83,1014.68,2028.97,2086.65,2055.20,2353.59,599.92,593.03,24.08,0000 0000 0000 0000 000000
2017-03-18 06:16:04,0.11,4.63,0.00,23.90,26.72,30.11,14.38,49.76,1014.68,2028.98,2085.37,2054.26,2352.61,599.74,592.83,24.13,0000 0000 0000 0000 000000
2017-03-18 06:21:05,0.11,4.64,0.00,23.95,26.72,30.13,14.41,49.56,1014.68,2028.98,2083.99,2053.44,2351.64,599.90,592.92,24.18,0000 0000 0000 0000 000000
2017-03-18 06:26:07,0.11,4.64,0.00,23.94,26.72,30.13,14.43,49.68,1014.67,2028.97,2082.65,2052.63,2350.57,600.03,592.98,24.23,0000 0000 0000 0000 000000
2017-03-18 06:31:08,0.11,4.65,0.00,23.95,26.71,30.12,14.43,49.59,1014.66,2028.98,2081.34,2051.72,2349.52,599.98,592.97,24.28,0000 0000 0000 0000 000000
2017-03-18 06:36:10,0.13,4.66,0.00,23.96,26.70,30.12,14.31,49.54,1014.62,2028.98,2079.84,2050.80,2348.44,599.74,592.74,24.33,0000 0000 0000 0000 000000
2017-03-18 06:41:11,0.10,4.66,0.00,23.99,26.70,30.11,14.41,49.58,1014.49,2028.98,2078.50,2049.90,2347.46,600.15,592.91,24.38,0000 0000 0000 0000 000000
2017-03-18 06:46:13,0.11,4.67,0.00,23.95,26.70,30.09,14.40,49.55,1014.45,2028.98,2077.11,2049.02,2346.35,599.82,592.65,24.43,0000 0000 0000 0000 000000
2017-03-18 06:51:14,0.13,4.68,0.00,23.92,26.70,30.08,14.42,49.62,1014.24,2028.97,2075.72,2047.96,2345.26,599.99,592.80,24.48,0000 0000 0000 0000 000000
2017-03-18 06:56:16,0.13,4.68,0.00,23.94,26.70,30.09,14.44,49.66,1014.18,2028.97,2074.09,2047.02,2343.91,599.92,592.76,24.53,0000 0000 0000 0000 000000
2017-03-18 07:01:17,0.15,4.69,0.00,23.96,26.70,30.09,14.45,49.76,1013.98,2028.98,2072.34,2046.00,2342.58,600.22,592.75,24.58,0000 0000 0000 0000 000000
2017-03-18 07:06:19,0.12,4.70,0.00,23.96,26.70,30.08,14.39,49.99,1013.69,2028.99,2070.84,2044.94,2341.31,600.03,592.46,24.63,0000 0000 0000 0000 000000
2017-03-18 07:11:20,0.13,4.70,0.00,23.96,26.69,30.07,14.41,50.34,1013.50,2028.98,2069.59,2043.90,2340.16,599.84,592.25,24.68,0000 0000 0000 0000 000000
2017-03-18 07:16:21,0.10,4.71,0.00,23.96,26.69,30.08,14.45,50.41,1013.22,2028.98,2068.19,2042.97,2339.02,600.30,592.46,24.73,0000 0000 0000 0000 000000
2017-03-18 07:21:22,0.15,4.72,0.00,23.95,26.68,30.08,14.36,50.33,1013.21,2028.99,2066.61,2041.93,2337.81,599.75,591.89,24.78,0000 0000 0000 0000 000000
2017-03-18 07:26:24,0.20,4.73,0.00,23.94,26.67,30.07,14.43,50.11,1013.20,2028.99,2064.68,2040.45,2336.23,599.86,591.92,24.83,0000 0000 0000 0000 000000
2017-03-18 07:31:25,0.16,4.73,0.00,23.94,26.67,30.07,14.37,50.00,1013.20,2028.99,2062.89,2039.33,2334.74,600.02,591.95,24.88,0000 0000 0000 0000 000000
2017-03-18 07:36:26,0.13,4.74,0.00,23.91,26.67,30.03,14.41,50.28,1013.19,2028.99,2061.29,2038.16,2333.46,599.73,591.99,24.93,0000 0000 0000 0000 000000
2017-03-18 07:41:28,0.16,4.75,0.00,23.89,26.67,30.03,14.43,50.52,1013.02,2028.99,2059.61,2037.02,2332.10,599.96,592.10,24.98,0000 0000 0000 0000 000000
2017-03-18 07:46:29,0.13,4.76,0.00,23.89,26.66,30.04,14.40,50.61,1013.07,2028.99,2057.99,2035.89,2330.74,599.58,591.85,25.03,0000 0000 0000 0000 000000
2017-03-18 07:51:30,0.14,4.76,0.00,23.89,26.65,30.04,14.47,50.52,1013.19,2028.99,2056.49,2034.86,2329.55,600.22,592.34,25.08,0000 0000 0000 0000 000000
2017-03-18 07:56:31,0.15,4.77,0.00,23.89,26.65,30.07,14.47,50.64,1013.20,2028.99,2054.84,2033.72,2328.30,600.36,592.60,25.13,0000 0000 0000 0000 000000
2017-03-18 08:01:32,0.12,4.78,0.00,23.86,26.65,30.09,14.43,50.31,1013.19,2028.99,2053.33,2032.76,2327.02,599.85,592.17,25.18,0000 0000 0000 0000 000000
2017-03-18 08:06:34,0.14,4.78,0.00,23.83,26.66,30.09,14.51,50.14,1013.20,2028.99,2051.79,2031.80,2325.86,600.59,592.96,25.23,0000 0000 0000 0000 000000
2017-03-18 08:11:35,0.13,4.79,0.00,23.80,26.66,30.10,14.39,49.93,1013.20,2028.99,2050.40,2030.77,2324.73,600.14,592.24,25.28,0000 0000 0000 0000 000000
2017-03-18 08:16:36,0.13,4.80,0.00,23.71,26.65,30.06,14.39,50.13,1013.20,2028.99,2048.87,2029.79,2323.62,599.78,592.50,25.33,0000 0000 0000 0000 000000
2017-03-18 08:21:38,0.13,4.80,0.00,23.71,26.65,30.05,14.46,49.93,1013.20,2028.99,2047.39,2028.80,2322.48,600.28,592.93,25.38,0000 0000 0000 0000 000000
2017-03-18 08:26:39,0.11,4.81,0.00,23.72,26.65,30.02,14.44,50.18,1013.20,2028.99,2046.19,2027.85,2321.36,599.85,592.44,25.43,0000 0000 0000 0000 000000
2017-03-18 08:31:40,0.15,4.82,0.00,23.77,26.65,30.05,14.39,50.22,1013.20,2028.99,2044.64,2026.79,2320.13,600.14,592.71,25.48,0000 0000 0000 0000 000000
2017-03-18 08:36:42,0.13,4.82,0.00,23.78,26.65,30.08,14.44,50.36,1013.20,2028.99,2043.09,2025.75,2318.87,599.81,592.28,25.53,0000 0000 0000 0000 000000
2017-03-18 08:41:43,0.14,4.83,0.00,23.77,26.65,30.09,14.45,50.43,1013.20,2028.99,2041.56,2024.76,2317.68,600.11,592.60,25.58,0000 0000 0000 0000 000000
2017-03-18 08:46:44,0.15,4.84,0.00,23.80,26.65,30.10,14.42,50.32,1013.20,2028.99,2039.86,2023.68,2316.38,600.11,592.59,25.63,0000 0000 0000 0000 000000
2017-03-18 08:51:46,0.13,4.85,0.00,23.81,26.65,30.09,14.46,50.23,1013.24,2028.99,2038.39,2022.58,2315.17,600.22,592.57,25.68,0000 0000 0000 0000 000000
2017-03-18 08:56:47,0.16,4.86,0.00,23.71,26.65,30.10,14.43,49.93,1013.48,2029.00,2036.62,2021.49,2313.86,600.15,592.82,25.73,0000 0000 0000 0000 000000
2017-03-18 09:01:48,0.13,4.86,0.00,23.62,26.65,30.09,14.49,50.09,1013.64,2029.01,2035.16,2020.53,2312.72,600.42,593.51,25.78,0000 0000 0000 0000 000000
2017-03-18 09:06:49,0.14,4.87,0.00,23.70,26.65,30.13,14.39,50.20,1013.64,2029.00,2033.66,2019.47,2311.51,599.78,592.65,25.83,0000 0000 0000 0000 000000
2017-03-18 09:11:51,0.11,4.87,0.00,23.70,26.65,30.02,14.51,50.00,1013.66,2029.01,2032.34,2018.54,2310.42,600.54,593.50,25.88,0000 0000 0000 0000 000000
2017-03-18 09:16:52,0.14,4.88,0.00,23.75,26.65,30.03,14.50,50.08,1013.61,2029.00,2030.79,2017.52,2309.25,600.28,593.13,25.93,0000 0000 0000 0000 000000
2017-03-18 09:21:53,0.13,4.89,0.00,23.75,26.65,30.09,14.45,49.98,1013.65,2029.00,2029.32,2016.46,2307.96,600.14,592.93,25.98,0000 0000 0000 0000 000000
2017-03-18 09:26:55,0.13,4.89,0.00,23.76,26.65,30.10,14.45,49.77,1013.51,2029.00,2027.83,2015.60,2306.85,600.25,592.92,26.03,0000 0000 0000 0000 000000
2017-03-18 09:31:56,0.14,4.90,0.00,23.76,26.65,30.11,14.47,49.80,1013.25,2029.00,2026.47,2014.54,2305.72,600.11,592.74,26.08,0000 0000 0000 0000 000000
2017-03-18 09:36:57,0.12,4.91,0.00,23.73,26.65,30.10,14.40,50.04,1013.26,2029.00,2025.01,2013.62,2304.65,599.82,592.44,26.13,0000 0000 0000 0000 000000
2017-03-18 09:41:58,0.14,4.91,0.00,23.75,26.66,30.11,14.47,49.88,1013.22,2029.00,2023.60,2012.59,2303.49,600.29,592.80,26.18,0000 0000 0000 0000 000000
2017-03-18 09:47:00,0.12,4.92,0.00,23.72,26.66,30.04,14.46,49.97,1013.20,2029.00,2022.13,2011.58,2302.42,600.33,592.96,26.23,0000 0000 0000 0000 000000
2017-03-18 09:52:01,0.13,4.93,0.00,23.72,26.67,30.07,14.42,49.92,1013.20,2029.00,2020.66,2010.61,2301.26,600.37,592.89,26.28,0000 0000 0000 0000 000000
2017-03-18 09:57:02,0.14,4.94,0.00,23.75,26.67,30.11,14.45,49.87,1013.20,2029.00,2019.07,2009.53,2299.96,600.32,592.87,26.33,0000 0000 0000 0000 000000
2017-03-18 10:02:03,0.15,4.94,0.00,23.78,26.67,30.13,14.46,49.89,1013.19,2029.00,2017.51,2008.47,2298.72,600.16,592.61,26.38,0000 0000 0000 0000 000000
2017-03-18 10:07:04,0.14,4.95,0.00,23.77,26.67,30.10,14.47,50.06,1013.14,2029.00,2015.91,2007.38,2297.45,600.09,592.62,26.43,0000 0000 0000 0000 000000
2017-03-18 10:12:06,0.14,4.96,0.00,23.76,26.67,30.10,14.40,50.46,1013.01,2029.00,2014.24,2006.21,2296.07,599.81,592.21,26.48,0000 0000 0000 0000 000000
2017-03-18 10:17:07,0.16,4.97,0.00,23.78,26.68,30.13,14.50,50.42,1013.09,2029.00,2012.54,2005.03,2294.63,600.14,592.50,26.54,0000 0000 0000 0000 000000
2017-03-18 10:22:08,0.11,4.97,0.00,23.77,26.69,30.14,14.49,50.15,1013.12,2029.00,2011.35,2004.18,2293.63,600.13,592.66,26.59,0000 0000 0000 0000 000000
2017-03-18 10:27:09,0.13,4.98,0.00,23.77,26.70,30.13,14.41,50.11,1013.17,2029.00,2009.92,2003.32,2292.54,599.65,592.13,26.64,0000 0000 0000 0000 000000
2017-03-18 10:32:10,0.13,4.99,0.00,23.78,26.70,30.14,14.46,50.02,1013.20,2029.00,2008.54,2002.32,2291.44,600.20,592.66,26.69,0000 0000 0000 0000 000000
2017-03-18 10:37:12,0.12,4.99,0.00,23.79,26.70,30.13,14.44,50.19,1013.20,2029.00,2007.18,2001.32,2290.24,599.87,592.28,26.74,0000 0000 0000 0000 000000
2017-03-18 10:42:13,0.14,5.00,0.00,23.71,26.70,30.13,14.40,50.18,1013.21,2029.00,2005.70,2000.36,2289.10,600.29,592.92,26.79,0000 0000 0000 0000 000000
2017-03-18 10:47:14,0.12,5.01,0.00,23.58,26.67,30.08,14.40,50.06,1013.20,2029.00,2004.30,1999.47,2287.99,599.86,592.83,26.84,0000 0000 0000 0000 000000
2017-03-18 10:52:16,0.15,5.01,0.00,23.54,26.67,30.28,14.46,49.95,1013.20,2029.00,2002.76,1998.44,2286.85,600.19,593.16,26.89,0000 0000 0000 0000 000000
2017-03-18 10:57:17,0.13,5.02,0.00,23.64,26.66,30.25,14.46,49.98,1013.20,2029.00,2001.34,1997.50,2285.72,600.15,592.89,26.94,0000 0000 0000 0000 000000
2017-03-18 11:02:18,0.13,5.03,0.00,23.61,26.65,30.03,14.42,50.16,1013.19,2029.00,1999.92,1996.55,2284.59,600.31,593.15,26.99,0000 0000 0000 0000 000000
2017-03-18 11:07:19,0.14,5.03,0.00,23.69,26.65,30.04,14.43,50.13,1013.17,2029.00,1998.49,1995.56,2283.46,599.74,592.38,27.04,0000 0000 0000 0000 000000
2017-03-18 11:12:20,0.12,5.04,0.00,23.73,26.65,30.08,14.44,50.34,1013.07,2029.00,1997.11,1994.57,2282.31,600.07,592.50,27.09,0000 0000 0000 0000 000000
2017-03-18 11:17:22,0.13,5.05,0.00,23.73,26.65,30.06,14.50,50.34,1013.05,2029.00,1995.70,1993.63,2281.20,599.97,592.53,27.14,0000 0000 0000 0000 000000
2017-03-18 11:22:23,0.12,5.05,0.00,23.75,26.67,30.06,14.36,50.23,1013.18,2029.00,1994.19,1992.71,2280.00,599.96,592.46,27.19,0000 0000 0000 0000 000000
2017-03-18 11:27:24,0.16,5.06,0.00,23.74,26.67,30.10,14.51,50.19,1013.20,2029.00,1992.65,1991.68,2278.79,600.61,592.95,27.24,0000 0000 0000 0000 000000
2017-03-18 11:32:26,0.14,5.07,0.00,23.76,26.67,30.14,14.49,50.06,1013.21,2029.00,1991.14,1990.54,2277.52,599.96,592.49,27.29,0000 0000 0000 0000 000000
2017-03-18 11:37:27,0.15,5.08,0.00,23.77,26.67,30.12,14.49,49.98,1013.21,2029.00,1989.51,1989.46,2276.26,600.13,592.55,27.34,0000 0000 0000 0000 000000
2017-03-18 11:42:28,0.13,5.08,0.00,23.79,26.67,30.11,14.47,49.84,1013.21,2029.00,1988.01,1988.43,2275.02,599.94,592.40,27.39,0000 0000 0000 0000 000000
2017-03-18 11:47:29,0.14,5.09,0.00,23.77,26.67,30.07,14.44,49.83,1013.20,2029.00,1986.61,1987.44,2273.89,600.01,592.50,27.44,0000 0000 0000 0000 000000
2017-03-18 11:52:30,0.12,5.10,0.00,23.76,26.68,30.10,14.44,49.87,1013.16,2029.00,1985.20,1986.50,2272.79,600.14,592.63,27.49,0000 0000 0000 0000 000000
2017-03-18 11:57:32,0.12,5.10,0.00,23.78,26.69,30.12,14.41,49.98,1012.82,2029.00,1983.90,1985.59,2271.73,599.86,592.03,27.54,0000 0000 0000 0000 000000
2017-03-18 12:02:33,0.14,5.11,0.00,23.79,26.70,30.13,14.36,50.02,1012.71,2029.00,1982.65,1984.63,2270.53,599.77,591.91,27.59,0000 0000 0000 0000 000000
2017-03-18 12:07:34,0.13,5.12,0.00,23.81,26.70,30.12,14.43,50.36,1012.51,2029.00,1981.19,1983.63,2269.32,600.22,592.22,27.64,0000 0000 0000 0000 000000
2017-03-18 12:12:35,0.13,5.12,0.00,23.81,26.70,30.10,14.39,50.41,1012.22,2029.00,1979.71,1982.72,2268.10,599.69,591.58,27.69,0000 0000 0000 0000 000000
2017-03-18 12:17:36,0.15,5.13,0.00,23.75,26.70,30.09,14.49,50.73,1012.11,2029.00,1978.24,1981.62,2266.81,600.31,592.21,27.74,0000 0000 0000 0000 000000
2017-03-18 12:22:38,0.15,5.14,0.00,23.75,26.70,30.11,14.34,50.74,1012.02,2029.00,1976.73,1980.55,2265.54,599.32,591.21,27.79,0000 0000 0000 0000 000000
2017-03-18 12:27:39,0.12,5.15,0.00,23.73,26.70,30.13,14.41,50.87,1012.14,2029.00,1975.42,1979.59,2264.42,600.11,592.07,27.84,0000 0000 0000 0000 000000
2017-03-18 12:32:40,0.12,5.15,0.00,23.61,26.70,30.11,14.41,50.81,1012.22,2029.00,1974.02,1978.62,2263.37,599.86,592.29,27.89,0000 0000 0000 0000 000000
2017-03-18 12:37:41,0.13,5.16,0.00,23.52,26.69,30.17,14.48,50.56,1012.25,2029.00,1972.65,1977.73,2262.30,599.82,592.22,27.94,0000 0000 0000 0000 000000
2017-03-18 12:42:43,0.10,5.17,0.00,23.48,26.67,30.38,14.47,50.51,1012.26,2029.00,1971.39,1976.94,2261.27,599.92,592.43,27.99,0000 0000 0000 0000 000000
2017-03-18 12:47:44,0.12,5.17,0.00,23.54,26.67,30.38,14.44,50.56,1012.23,2029.00,1970.07,1976.05,2260.28,600.07,592.51,28.04,0000 0000 0000 0000 000000
2017-03-18 12:52:45,0.13,5.18,0.00,23.60,26.67,30.17,14.44,50.50,1012.22,2029.00,1968.70,1975.15,2259.23,600.34,592.58,28.09,0000 0000 0000 0000 000000
2017-03-18 12:57:46,0.12,5.18,0.00,23.63,26.67,30.07,14.37,50.26,1012.22,2029.00,1967.49,1974.19,2258.09,599.98,592.23,28.14,0000 0000 0000 0000 000000